P/2006 U5 ( Christensen )

Japanese version
Home page
Total 6,336 html files since Dec. 4, 1995
Updated on May 25, 2008

---------------------------------------------------------------------

* Profile

Discovery Date October 27, 2006
Magnitude 18.0 mag
Discoverer E. J. Christensen (Catalina Sky Survey)

* Orbital Elements

The following orbital elements are taken from MPC 59596:

Epoch 2007 Jan. 20.0 TT = JDT 2454120.5
T 2007 Jan. 18.9143 TT                                  MPC
q   2.325908             (2000.0)            P               Q
n   0.1486134      Peri.   98.3897      -0.2330663      -0.9724463
a   3.529914       Node     5.0972      +0.8670141      -0.2102670
e   0.341086       Incl.    3.4304      +0.4404164      -0.1006775
P   6.63
From 308 observations 2006 Oct. 27-2007 Apr. 11, mean residual 0".6.

* Finding Charts

* Magnitudes Graph

        m1 = 12.5 + 5 log d + 10.0 log r

---------------------------------------------------------------------

The orbital elements are published at the MPC Ephemerides and Orbital Elements.
The charts are made with StellaNavigator Ver.2.0 for Windows (AstroArts / ASCII).
The magnitudes graphs are made with Comet for Windows.

---------------------------------------------------------------------

Copyright(C) 1995-2008 Seiichi Yoshida (comet@aerith.net). All rights reserved.